Albuquerque, NM

8:23 PM MST on January 16, 2018 (GMT -0700)
Albuquerque International Sunport

Weather History for KABQ - November, 2013

Change the Weather History Date:

Wednesday, November 13, 2013

  Actual Average Record
Temperature  
Mean Temperature 43 °F 46 °F  
Max Temperature 55 °F 57 °F 72 °F (1995)
Min Temperature 31 °F 35 °F 13 °F (1940)
Degree Days  
Heating Degree Days 22 19  
Month to date heating degree days 202 214  
Since 1 July heating degree days 499 480  
Cooling Degree Days 0 0  
Month to date cooling degree days 0 0  
Year to date cooling degree days 1565 1322  
Moisture  
Dew Point 34 °F    
Average Humidity 70    
Maximum Humidity 89    
Minimum Humidity 50    
Precipitation  
Precipitation 0.00 in 0.02 in 0.78 in (1902)
Month to date precipitation 0.14 0.26  
Year to date precipitation 8.16 8.64  
Snow  
Snow 0.00 in - - ()
Month to date snowfall 0.0  
Since 1 July snowfall 0.0  
Since 1 September snowfall 0.0  
Snow Depth 0.00 in    
Sea Level Pressure  
Sea Level Pressure 30.34 in    
Wind  
Wind Speed 4 mph (SSE)    
Max Wind Speed 12 mph    
Max Gust Speed 14 mph    
Visibility 10 miles    
Events      
T = Trace of Precipitation, MM = Missing Value Source: NWS Daily Summary

Daily Weather History Graph

Daily Weather History Graph

Search for Another Location

Airport or City:

Trip Planner

Search our weather history database for the weather conditions in past years. The results will help you decide how hot, cold, wet, or windy it might be!

Date:

Astronomy

Nov. 13, 2013 Rise Set
Actual Time 6:39 AM MST 5:01 PM MST
Civil Twilight 6:12 AM MST 5:28 PM MST
Nautical Twilight 5:41 AM MST 5:59 PM MST
Astronomical Twilight 5:12 AM MST 6:29 PM MST
Moon 2:43 PM MST (11/13) 2:43 AM MST (11/13)
Length of Visible Light 11h 16m
Length of Day
10h 22m
Waxing Gibbous, 85% of the Moon is Illuminated
Nov 13
Waxing Gibbous
Nov 17
Full
Nov 25
Last Quarter
Dec 2
New
Dec 9
First Quarter

Hourly Weather History & Observations

Time (MST) Temp. Windchill Dew Point Humidity Pressure Visibility Wind Dir Wind Speed Gust Speed Precip Events Conditions
12:52 AM 39.9 °F 36.7 °F 32.0 °F 73% 30.49 in 10.0 mi North 4.6 mph - N/A   Clear
1:52 AM 37.9 °F - 32.0 °F 79% 30.48 in 10.0 mi Calm Calm - N/A   Clear
2:52 AM 37.0 °F 31.6 °F 32.0 °F 82% 30.46 in 10.0 mi North 6.9 mph - N/A   Clear
3:52 AM 37.0 °F - 32.0 °F 82% 30.46 in 10.0 mi Calm Calm - N/A   Clear
4:52 AM 33.1 °F - 28.0 °F 82% 30.49 in 10.0 mi Calm Calm - N/A   Clear
5:52 AM 33.1 °F - 28.0 °F 82% 30.50 in 10.0 mi Calm Calm - N/A   Partly Cloudy
6:52 AM 32.0 °F 27.5 °F 28.0 °F 85% 30.51 in 10.0 mi South 4.6 mph - N/A   Scattered Clouds
7:52 AM 34.0 °F 31.0 °F 30.0 °F 85% 30.51 in 10.0 mi South 3.5 mph - N/A   Scattered Clouds
8:52 AM 37.0 °F - 30.9 °F 79% 30.50 in 10.0 mi Calm Calm - N/A   Scattered Clouds
9:52 AM 42.1 °F - 32.0 °F 67% 30.46 in 10.0 mi Calm Calm - N/A   Scattered Clouds
10:52 AM 46.9 °F - 33.1 °F 59% 30.41 in 10.0 mi Calm Calm - N/A   Scattered Clouds
11:52 AM 48.9 °F - 34.0 °F 56% 30.36 in 10.0 mi Variable 3.5 mph - N/A   Scattered Clouds
12:52 PM 51.1 °F - 35.1 °F 54% 30.30 in 10.0 mi SW 3.5 mph - N/A   Scattered Clouds
1:52 PM 53.1 °F - 36.0 °F 52% 30.26 in 10.0 mi SSE 9.2 mph - N/A   Scattered Clouds
2:52 PM 53.1 °F - 36.0 °F 52% 30.24 in 10.0 mi SSE 8.1 mph - N/A   Scattered Clouds
3:52 PM 54.0 °F - 36.0 °F 51% 30.21 in 10.0 mi South 5.8 mph - N/A   Mostly Cloudy
4:52 PM 53.1 °F - 37.0 °F 55% 30.21 in 10.0 mi South 6.9 mph - N/A   Mostly Cloudy
5:52 PM 51.1 °F - 37.0 °F 59% 30.22 in 10.0 mi SSW 3.5 mph - N/A   Mostly Cloudy
6:52 PM 48.9 °F - 37.0 °F 64% 30.22 in 10.0 mi ESE 3.5 mph - N/A   Mostly Cloudy
7:52 PM 46.9 °F - 36.0 °F 66% 30.21 in 10.0 mi SE 5.8 mph - N/A   Mostly Cloudy
8:52 PM 46.0 °F 44.8 °F 36.0 °F 68% 30.19 in 10.0 mi SE 3.5 mph - N/A   Mostly Cloudy
9:52 PM 46.0 °F 44.8 °F 36.0 °F 68% 30.17 in 10.0 mi East 3.5 mph - N/A   Mostly Cloudy
10:52 PM 44.1 °F 39.0 °F 36.0 °F 73% 30.13 in 10.0 mi SE 9.2 mph - N/A   Mostly Cloudy
11:52 PM 43.0 °F 38.2 °F 37.0 °F 80% 30.12 in 10.0 mi SE 8.1 mph - N/A   Scattered Clouds